Location: Unspecified
(0.0000°N, 0.0000°E)
Time: 08:52:23
(UTC+00:00)

Tiros 1 despin weight - All Passes

Search period start: 29 August 2016 00:00
Search period end: 08 September 2016 00:00
Orbit: 595 x 645 km, 48.2° (Epoch: 29 August)

Date Brightness Start Highest point End Pass type
(mag) Time Alt. Az. Time Alt. Az. Time Alt. Az.
29 Aug - 07:35:45 10° S 07:39:24 23° SE 07:43:05 10° ENE daylight
29 Aug - 09:17:02 10° WSW 09:20:51 25° NW 09:24:41 10° N daylight
29 Aug - 19:43:56 10° NNW 19:48:09 38° NE 19:52:21 10° ESE visible
29 Aug - 21:26:56 10° W 21:29:35 15° SW 21:32:14 10° SSW night (unlit)
30 Aug - 07:52:05 10° SSW 07:56:35 65° SE 08:01:09 10° NE daylight
30 Aug - 20:00:48 10° NW 20:05:20 74° SW 20:09:50 10° SE visible
31 Aug - 06:29:57 10° SSE 06:32:19 14° SE 06:34:40 10° E daylight
31 Aug - 08:09:25 10° WSW 08:13:46 43° NW 08:18:07 10° NNE daylight
31 Aug - 18:37:29 10° N 18:41:05 23° NE 18:44:39 10° ESE visible
31 Aug - 20:18:43 10° WNW 20:22:30 26° SW 20:26:16 10° S visible
01 Sep - 06:45:21 10° SSW 06:49:31 36° SE 06:53:45 10° ENE daylight
01 Sep - 08:28:07 10° W 08:30:59 16° NW 08:33:53 10° N daylight
01 Sep - 18:53:45 10° NNW 18:58:16 63° NE 19:02:45 10° SE visible
02 Sep - 07:02:11 10° SW 07:06:41 77° NW 07:11:16 10° NE daylight
02 Sep - 17:31:39 10° NNE 17:33:57 14° NE 17:36:16 10° E daylight
02 Sep - 19:11:04 10° WNW 19:15:27 44° SW 19:19:46 10° SSE visible
03 Sep - 05:38:59 10° S 05:42:27 22° SE 05:45:56 10° E daylight
03 Sep - 07:20:02 10° WSW 07:23:52 27° NW 07:27:46 10° N daylight
03 Sep - 17:46:59 10° NNW 17:51:12 36° NE 17:55:23 10° ESE daylight
03 Sep - 19:29:42 10° W 19:32:39 17° SW 19:35:33 10° S visible
04 Sep - 05:55:12 10° SSW 05:59:38 60° SE 06:04:07 10° NE daylight
04 Sep - 07:40:53 10° NW 07:41:09 10° NW 07:41:25 10° NW daylight
04 Sep - 18:03:46 10° NW 18:08:22 80° SW 18:12:56 10° SE daylight
05 Sep - 04:33:22 10° SSE 04:35:21 13° SE 04:37:20 10° ESE visible
05 Sep - 06:12:29 10° SW 06:16:48 46° NW 06:21:10 10° NNE daylight
05 Sep - 16:40:34 10° N 16:44:07 21° NE 16:47:36 10° E daylight
05 Sep - 18:21:36 10° WNW 18:25:33 28° SW 18:29:28 10° S visible
06 Sep - 04:48:31 10° SSW 04:52:35 33° SE 04:56:39 10° ENE visible
06 Sep - 06:31:02 10° W 06:34:00 17° NW 06:37:01 10° N daylight
06 Sep - 16:56:45 10° NNW 17:01:18 58° NE 17:05:49 10° SE daylight
06 Sep - 18:41:50 10° WSW 18:42:47 11° SW 18:43:44 10° SW visible
07 Sep - 05:05:15 10° SW 05:09:44 83° NW 05:14:16 10° NE visible
07 Sep - 15:34:52 10° NNE 15:36:58 13° NE 15:39:03 10° ENE daylight
07 Sep - 17:14:00 10° NW 17:18:28 48° SW 17:22:54 10° SSE daylight
